Home   Weather   Bournemouth   Past weeks

Flag for United Kingdom Past Weather in Bournemouth, England, United Kingdom — Yesterday and Last 2 Weeks

Now
28 °F

Ice fog.


Feels Like: 28 °F
Forecast: 30 / 47 °F
Wind: No wind

Location: Bournemouth Airport

Current Time: Jan 24, 2017 at 7:23:19 am

Latest Report: Jan 24, 2017 at 6:50 am


Visibility: 0 mi

Pressure: 30.36 "Hg

Humidity: 93%

Dew Point: 27 °F

Location of BournemouthLocation

Past Weather in Bournemouth — Graph

°F

Bournemouth Temperature Yesterday

Maximum temperature yesterday: 36 °F (at 2:20 pm)
Minimum temperature yesterday: 27 °F (at 6:20 am)
Average temperature yesterday: 31 °F

High & Low Weather Summary for the Past Weeks

 TemperatureHumidityPressure
High52 °F (Jan 11, 6:20 am)100% (Jan 9, 5:50 am)30.66 "Hg (Jan 9, 5:50 am)
Low19 °F (Jan 21, 6:50 am)46% (Jan 19, 3:20 pm)29.36 "Hg (Jan 12, 3:20 pm)
Average39 °F85%30.22 "Hg
* Reported Jan 9 5:50 am — Jan 24 5:50 am, Bournemouth, Weather by CustomWeather, © 2017

Note: Actual official high and low records may vary slightly from our data, if they occured in-between our weather recording intervals... More about our weather records

Advertising

Bournemouth Weather History for the Previous 24 Hours

Scroll right to see more
 ConditionsComfort  
Time TempWeatherWind HumidityBarometerVisibility
5:50 am
Tue, Jan 24
28 °FIce fog.No wind100%30.33 "Hg0 mi
11:50 pm
Mon, Jan 23
30 °FIce fog.1 mph100%30.36 "Hg0 mi
11:20 pm30 °FIce fog.1 mph100%30.36 "Hg0 mi
10:50 pm30 °FFog.1 mph100%30.36 "Hg0 mi
10:20 pm32 °FFog.1 mph100%30.36 "Hg0 mi
9:50 pm32 °FFog.1 mph100%30.36 "Hg0 mi
9:20 pm32 °FFog.1 mph100%30.36 "Hg0 mi
8:50 pm32 °FFog.1 mph100%30.36 "Hg0 mi
8:20 pm32 °FFog.1 mph100%30.36 "Hg0 mi
7:50 pm32 °FFog.1 mph100%30.36 "Hg0 mi
7:20 pm32 °FFog.1 mph100%30.36 "Hg0 mi
6:50 pm32 °FFog.2 mph100%30.36 "Hg0 mi
6:20 pm32 °FFog.1 mph100%30.36 "Hg0 mi
5:50 pm32 °FFog.2 mph100%30.36 "Hg0 mi
5:20 pm34 °FFog.3 mph100%30.36 "Hg0 mi
4:50 pm34 °FFog.1 mph100%30.36 "Hg0 mi
4:20 pm34 °FFog.1 mph100%30.33 "Hg0 mi
3:50 pm34 °FFog.3 mph100%30.33 "Hg0 mi
3:20 pm36 °FFog.2 mph100%30.33 "Hg0 mi
2:50 pm36 °FFog.1 mph100%30.33 "Hg0 mi
2:20 pm36 °FFog.1 mph100%30.33 "Hg0 mi
1:50 pm34 °FFog.24 mph100%30.36 "Hg0 mi
1:20 pm34 °FFog.2 mph100%30.36 "Hg0 mi
12:50 pm34 °FFog.1 mph100%30.36 "Hg0 mi
12:20 pm32 °FFog.1 mph100%30.39 "Hg0 mi
11:50 am32 °FIce fog.2 mph100%30.39 "Hg0 mi
11:20 am30 °FIce fog.2 mph100%30.39 "Hg0 mi
10:50 am30 °FIce fog.2 mph100%30.39 "Hg0 mi
10:20 am28 °FIce fog.2 mph100%30.39 "Hg0 mi
9:50 am28 °FIce fog.2 mph100%30.39 "Hg0 mi
9:20 am28 °FIce fog.3 mph100%30.39 "Hg0 mi
8:50 am28 °FIce fog.3 mph100%30.39 "Hg0 mi
8:20 am28 °FIce fog.3 mph100%30.36 "Hg0 mi
7:50 am28 °FIce fog.2 mph93%30.36 "Hg0 mi
7:20 am28 °FIce fog.2 mph93%30.36 "Hg0 mi
Weather by CustomWeather, © 2017

See weather overviewHow to use our weather pages